[[{"header":{"parameterUnit":"m.s-1","parameterCategory":1,"la1":30.2991,"la2":30.254,"lo1":-89.0895,"lo2":-89.0444,"dy":0.0017,"dx":0.0017,"nx":28,"ny":28,"refTime":"2025-06-18T09:00:00:Z","depth":0,"parameterNumber":2,"parameterNumberName":"U-component_of_WINDS"},"data":[0,0,0,0,0,0,0,0,0,0,0,0,0,0,0,0,0,0,0,0,0,0,0,0,0,0,0,0,0,0,0,0,0,0,0,0,0,0,0,0,0,0,0,0,0,0,0,0,0,0,0,0,0,0,0,0,0,0,-1.1768,-1.1767,0,-1.168,-1.1679,-1.1678,-1.1628,-1.1628,-1.1628,-1.1628,-1.1536,-1.1534,-1.1532,0,0,0,0,0,0,0,0,0,0,0,0,0,-1.1895,-1.1893,-1.1768,-1.1767,-1.1766,-1.168,-1.1679,-1.1677,-1.1628,-1.1628,-1.1628,-1.1628,-1.1537,-1.1534,-1.1532,0,0,0,0,0,0,0,0,0,0,0,0,0,-1.1826,-1.1892,-1.1768,-1.1731,-1.1727,-1.168,-1.1679,-1.1677,-1.1628,-1.1628,-1.1628,-1.1628,-1.1538,-1.1535,-1.1531,-1.1515,0,0,-1.1521,-1.1519,0,0,0,0,0,0,0,0,-1.183,-1.1822,-1.1738,-1.1734,-1.1729,-1.1665,-1.169,-1.1623,-1.1628,-1.1666,-1.1628,-1.1627,-1.1579,-1.1572,-1.1556,-1.151,-1.1506,-1.152,-1.1518,-1.1517,-1.1516,0,0,0,0,0,0,0,-1.1835,-1.1825,-1.1733,-1.1737,-1.1731,-1.1719,-1.1709,-1.1677,-1.1625,-1.1662,-1.1659,-1.1649,-1.1577,-1.156,-1.1554,-1.1505,-1.1521,-1.1518,-1.1515,-1.1514,-1.1442,-1.1442,0,0,0,0,0,0,-1.1846,-1.183,-1.1736,-1.1731,-1.178,-1.1717,-1.1706,-1.1686,-1.1625,-1.1616,-1.1649,-1.1647,-1.1566,-1.1558,-1.155,-1.1527,-1.1517,-1.1514,-1.1512,-1.1442,-1.1442,-1.1442,0,0,0,0,0,0,-1.1849,-1.1838,-1.174,-1.1779,-1.1766,-1.1715,-1.1693,-1.1684,-1.1667,-1.1615,-1.1605,-1.1641,-1.1565,-1.1555,-1.1524,-1.1523,-1.1512,-1.1509,-1.1442,-1.1442,-1.1442,-1.148,0,0,0,0,0,0,-1.1853,-1.1839,-1.1832,-1.1779,-1.1764,-1.1715,-1.1693,-1.1682,-1.1661,-1.1657,-1.1605,-1.1596,-1.1564,-1.153,-1.1521,-1.1518,-1.1506,-1.1441,-1.1442,-1.1442,-1.1479,-1.1482,-1.1485,0,0,0,0,0,-1.1857,-1.1846,-1.1832,-1.1821,-1.1754,-1.1715,-1.1706,-1.167,-1.1661,-1.1654,-1.1621,-1.1598,-1.1525,-1.1527,-1.1516,-1.1513,-1.1441,-1.1442,-1.1442,-1.1478,-1.1481,-1.1484,0,0,0,0,0,0,-1.19,-1.1839,-1.1822,-1.1794,-1.176,-1.1707,-1.1696,-1.1675,-1.1642,-1.164,-1.1596,-1.1585,-1.1558,-1.1532,-1.1535,-1.1494,-1.1481,-1.1479,-1.1512,-1.1515,-1.1517,-1.1524,-1.1504,0,0,0,0,0,-1.1906,-1.188,-1.1828,-1.1808,-1.1792,-1.1747,-1.1729,-1.1704,-1.1667,-1.1652,-1.1617,-1.1582,-1.1551,-1.1531,-1.15,-1.1476,-1.1464,-1.1468,-1.1471,-1.1474,-1.1472,-1.1458,-1.1459,-1.1443,-1.1443,-1.1443,0,0,-1.1919,-1.1882,-1.1868,-1.1815,-1.1786,-1.176,-1.1735,-1.1708,-1.1688,-1.1648,-1.1616,-1.159,-1.1548,-1.152,-1.1506,-1.1498,-1.1474,-1.1474,-1.1476,-1.1473,-1.1458,-1.146,-1.1461,-1.1443,-1.1443,-1.1443,0,0,-1.1928,-1.1897,-1.1877,-1.1849,-1.1805,-1.1776,-1.1772,-1.1722,-1.1702,-1.167,-1.164,-1.1616,-1.1563,-1.1535,-1.1514,-1.1514,-1.1491,-1.1505,-1.1519,-1.1505,-1.1506,-1.1507,-1.1507,-1.1508,-1.1504,-1.1504,-1.1504,0,-1.1948,-1.1907,-1.187,-1.1845,-1.1823,-1.1786,-1.1766,-1.174,-1.1689,-1.1674,-1.1666,-1.1601,-1.157,-1.1535,-1.1535,-1.1519,-1.1513,-1.151,-1.1509,-1.151,-1.151,-1.1509,-1.151,-1.1506,-1.1506,-1.1505,-1.1505,0,-1.1935,-1.1907,-1.1897,-1.1848,-1.1825,-1.1803,-1.1762,-1.1743,-1.1721,-1.1693,-1.1661,-1.1623,-1.1584,-1.1574,-1.1551,-1.1536,-1.1533,-1.1518,-1.1503,-1.1514,-1.1513,-1.1512,-1.1509,-1.1508,-1.1507,-1.1507,0,0,-1.1967,-1.1899,-1.1896,-1.1874,-1.1824,-1.1802,-1.1778,-1.174,-1.1725,-1.1691,-1.167,-1.1628,-1.1614,-1.159,-1.1564,-1.1552,-1.1555,-1.1539,-1.1537,-1.1543,-1.1536,-1.1548,-1.1548,-1.1541,-1.154,-1.154,-1.154,0,-1.1969,-1.1924,-1.189,-1.1858,-1.1833,-1.1798,-1.1777,-1.1745,-1.1718,-1.1692,-1.1663,-1.1633,-1.1617,-1.1603,-1.159,-1.1558,-1.1553,-1.1557,-1.152,-1.152,-1.1531,-1.1547,-1.1559,-1.156,-1.1539,-1.1539,-1.1539,0,-1.1964,-1.1932,-1.1898,-1.1851,-1.1839,-1.1821,-1.1784,-1.176,-1.1723,-1.1704,-1.1678,-1.1652,-1.1626,-1.1615,-1.1578,-1.1582,-1.1565,-1.1547,-1.1546,-1.1541,-1.1529,-1.1542,-1.1559,-1.156,-1.1538,-1.1538,-1.1538,0,-1.1991,-1.1939,-1.1912,-1.1894,-1.1839,-1.1828,-1.1804,-1.1767,-1.1746,-1.1714,-1.1701,-1.1666,-1.1647,-1.1621,-1.1586,-1.1581,-1.1553,-1.1539,-1.1537,-1.1538,-1.1531,-1.1532,-1.1546,-1.1522,-1.1522,-1.1522,-1.1522,0,-1.1996,-1.1976,-1.1923,-1.1907,-1.1884,-1.1846,-1.1825,-1.1798,-1.1765,-1.1743,-1.1711,-1.1691,-1.1647,-1.1622,-1.1594,-1.1568,-1.156,-1.1544,-1.1537,-1.1547,-1.1549,-1.1535,-1.1533,-1.1522,-1.1522,-1.1522,-1.1522,0,-1.2021,-1.1985,-1.1953,-1.1904,-1.1892,-1.1877,-1.1835,-1.1818,-1.179,-1.1763,-1.1754,-1.171,-1.1679,-1.1642,-1.1599,-1.158,-1.1557,-1.1546,-1.1569,-1.1565,-1.1565,-1.1565,-1.157,-1.1568,-1.1546,-1.1546,-1.1546,0,-1.2026,-1.2011,-1.196,-1.1943,-1.1921,-1.1894,-1.1873,-1.1835,-1.1815,-1.1772,-1.176,-1.1726,-1.1697,-1.1649,-1.1613,-1.158,-1.1569,-1.1573,-1.1563,-1.1574,-1.1568,-1.157,-1.1568,-1.1575,-1.1575,-1.1576,-1.1576,0,-1.2039,-1.2023,-1.1994,-1.196,-1.1936,-1.1907,-1.1876,-1.1864,-1.1821,-1.18,-1.1767,-1.1745,-1.1701,-1.1668,-1.1631,-1.1607,-1.1584,-1.1579,-1.1577,-1.1586,-1.16,-1.1593,-1.1576,-1.1579,-1.1579,-1.1579,-1.1578,-1.1578,-1.2055,-1.2039,-1.2002,-1.1971,-1.1944,-1.1917,-1.1899,-1.1869,-1.1841,-1.1803,-1.1782,-1.1751,-1.1714,-1.1662,-1.1639,-1.1614,-1.1606,-1.1602,-1.1601,-1.1601,-1.1604,-1.1605,-1.1607,-1.1607,-1.1606,-1.1606,-1.1606,0,-1.2066,-1.204,-1.2013,-1.1971,-1.1948,-1.1929,-1.1895,-1.1876,-1.1849,-1.1817,-1.1789,-1.1753,-1.1721,-1.1684,-1.1649,-1.1637,-1.1625,-1.1629,-1.1629,-1.1624,-1.1613,-1.1618,-1.1639,-1.1639,-1.1639,-1.1639,-1.1639,-1.1639,-1.2069,-1.2042,-1.2021,-1.1981,-1.1955,-1.1924,-1.1906,-1.1881,-1.1855,-1.1816,-1.179,-1.1766,-1.1732,-1.1695,-1.1665,-1.1655,-1.1644,-1.1651,-1.1637,-1.1628,-1.1625,-1.1622,-1.1627,-1.1649,-1.1649,-1.165,-1.165,-1.165]},{"header":{"parameterUnit":"m.s-1","parameterCategory":1,"la1":30.2991,"la2":30.254,"lo1":-89.0895,"lo2":-89.0444,"dy":0.0017,"dx":0.0017,"nx":28,"ny":28,"refTime":"2025-06-18T09:00:00:Z","depth":0,"parameterNumber":3,"parameterNumberName":"V-component_of_WINDS"},"data":[0,0,0,0,0,0,0,0,0,0,0,0,0,0,0,0,0,0,0,0,0,0,0,0,0,0,0,0,0,0,0,0,0,0,0,0,0,0,0,0,0,0,0,0,0,0,0,0,0,0,0,0,0,0,0,0,0,0,5.5284,5.5283,0,5.5267,5.5267,5.5267,5.5246,5.5245,5.5245,5.5245,5.5226,5.5226,5.5225,0,0,0,0,0,0,0,0,0,0,0,0,0,5.5295,5.5295,5.5284,5.5283,5.5283,5.5268,5.5267,5.5267,5.5246,5.5245,5.5245,5.5245,5.5226,5.5226,5.5225,0,0,0,0,0,0,0,0,0,0,0,0,0,5.5285,5.5295,5.5284,5.5271,5.527,5.5268,5.5267,5.5267,5.5246,5.5245,5.5245,5.5244,5.5226,5.5226,5.5225,5.5234,0,0,5.5224,5.5224,0,0,0,0,0,0,0,0,5.5286,5.5285,5.5273,5.5272,5.527,5.5258,5.5264,5.5256,5.5246,5.5255,5.5245,5.5244,5.5237,5.5236,5.5234,5.5233,5.5232,5.5224,5.5224,5.5224,5.5224,0,0,0,0,0,0,0,5.5287,5.5286,5.5277,5.5273,5.5271,5.5265,5.5263,5.5263,5.5249,5.5254,5.5252,5.5251,5.5236,5.5234,5.5233,5.5232,5.5224,5.5224,5.5224,5.5224,5.5239,5.5239,0,0,0,0,0,0,5.5289,5.5286,5.5278,5.5277,5.5277,5.5266,5.5263,5.5263,5.5249,5.5246,5.5251,5.525,5.5235,5.5233,5.5232,5.5242,5.5224,5.5224,5.5224,5.5238,5.5239,5.524,0,0,0,0,0,0,5.529,5.5289,5.5278,5.5281,5.5279,5.5266,5.5265,5.5262,5.526,5.5247,5.5244,5.5252,5.5234,5.5233,5.5234,5.5241,5.5224,5.5224,5.5238,5.5238,5.5239,5.5262,0,0,0,0,0,0,5.529,5.5289,5.5292,5.5281,5.5279,5.5281,5.5265,5.5263,5.526,5.5258,5.5247,5.5244,5.5234,5.5235,5.5234,5.5241,5.5223,5.5237,5.5238,5.5239,5.526,5.5263,5.5266,0,0,0,0,0,5.5291,5.5299,5.5293,5.5292,5.5283,5.5281,5.528,5.5269,5.5261,5.5264,5.5256,5.5245,5.5241,5.5235,5.5234,5.5241,5.5236,5.5238,5.5239,5.5259,5.5263,5.5266,0,0,0,0,0,0,5.531,5.5297,5.529,5.5295,5.529,5.5278,5.5281,5.5273,5.5269,5.5267,5.5252,5.5249,5.5253,5.5247,5.5241,5.5249,5.5237,5.5238,5.5253,5.5256,5.5259,5.526,5.5223,0,0,0,0,0,5.5315,5.5315,5.5303,5.5309,5.5307,5.5295,5.5293,5.5285,5.5279,5.5276,5.5267,5.5261,5.5258,5.5257,5.5253,5.526,5.5257,5.5264,5.5266,5.5269,5.527,5.5274,5.5277,5.5244,5.5244,5.5244,0,0,5.5325,5.5318,5.5318,5.5313,5.5307,5.5308,5.5293,5.5293,5.5293,5.5276,5.5277,5.5271,5.5262,5.5267,5.5268,5.5262,5.5279,5.527,5.5272,5.5272,5.5275,5.5278,5.5281,5.5245,5.5244,5.5244,0,0,5.5343,5.5338,5.5342,5.5338,5.5331,5.5323,5.5324,5.5314,5.5309,5.5311,5.5298,5.5297,5.5293,5.5288,5.5285,5.5303,5.5293,5.5302,5.5317,5.532,5.5323,5.5325,5.5332,5.5335,5.5304,5.5304,5.5304,0,5.5356,5.5357,5.5345,5.5347,5.5345,5.5331,5.5335,5.5331,5.5323,5.5321,5.5315,5.531,5.5303,5.5307,5.5311,5.5309,5.531,5.5304,5.5324,5.5326,5.5328,5.5334,5.5337,5.5305,5.5305,5.5305,5.5304,0,5.5373,5.5374,5.5378,5.5372,5.537,5.5373,5.5363,5.5362,5.5354,5.5347,5.5349,5.5341,5.5337,5.5337,5.5328,5.5339,5.5336,5.5327,5.5314,5.5332,5.5338,5.5341,5.5307,5.5306,5.5306,5.5306,0,0,5.5402,5.5391,5.5393,5.5391,5.5382,5.5382,5.5385,5.5382,5.5382,5.5377,5.5379,5.5376,5.5368,5.5365,5.5356,5.536,5.5376,5.535,5.535,5.5356,5.5388,5.5395,5.5398,5.5369,5.5369,5.537,5.5389,0,5.5419,5.5424,5.5415,5.5421,5.5422,5.5409,5.5411,5.5406,5.54,5.5399,5.5392,5.5391,5.538,5.5378,5.5381,5.5373,5.5382,5.5371,5.5371,5.5371,5.5373,5.5401,5.5408,5.5427,5.5391,5.5391,5.5391,0,5.544,5.5437,5.5445,5.5437,5.5437,5.5439,5.5436,5.5436,5.543,5.5425,5.5423,5.5413,5.5415,5.5404,5.5406,5.54,5.5399,5.5395,5.5395,5.5395,5.5382,5.5402,5.5432,5.5435,5.5395,5.5395,5.5394,0,5.5461,5.546,5.5464,5.5462,5.5453,5.5456,5.5452,5.5446,5.5445,5.5442,5.5441,5.5438,5.5436,5.5434,5.5424,5.5416,5.5428,5.5416,5.5424,5.5425,5.5427,5.5427,5.5458,5.5426,5.5426,5.5426,5.5426,0,5.5481,5.5486,5.5474,5.5476,5.5482,5.5471,5.5477,5.5471,5.5467,5.5468,5.5456,5.5457,5.5444,5.5444,5.5436,5.544,5.5439,5.5435,5.5433,5.5436,5.5437,5.5436,5.5434,5.5427,5.5427,5.5427,5.5427,0,5.5506,5.5498,5.5502,5.5494,5.5492,5.5496,5.5489,5.5491,5.5485,5.5487,5.5487,5.5476,5.5476,5.5466,5.5463,5.5457,5.5465,5.546,5.5467,5.5466,5.5475,5.5475,5.5507,5.5511,5.5476,5.5476,5.5477,0,5.5519,5.5523,5.5516,5.5517,5.5514,5.5515,5.5514,5.5504,5.5504,5.5498,5.5501,5.55,5.5499,5.5499,5.5491,5.5489,5.5484,5.5495,5.5483,5.5487,5.5485,5.5485,5.5486,5.5498,5.5498,5.5499,5.5499,0,5.5545,5.5541,5.5541,5.554,5.554,5.5538,5.5535,5.5536,5.5525,5.5525,5.5525,5.5524,5.5522,5.5522,5.5518,5.5514,5.5505,5.5503,5.5505,5.5509,5.5513,5.5511,5.5474,5.5502,5.5502,5.5501,5.5501,5.5501,5.5564,5.5568,5.5564,5.5564,5.5562,5.556,5.5562,5.5557,5.5557,5.5555,5.5548,5.555,5.5545,5.554,5.5537,5.5538,5.5532,5.5534,5.5535,5.5536,5.5539,5.5513,5.5537,5.5537,5.5537,5.5536,5.5536,0,5.559,5.5587,5.5587,5.5585,5.5586,5.5578,5.5575,5.5576,5.5578,5.5574,5.5574,5.5574,5.5574,5.5566,5.5565,5.5567,5.5563,5.5567,5.5567,5.5567,5.5543,5.5542,5.5571,5.5571,5.5571,5.5571,5.5571,5.5571,5.5603,5.5608,5.5604,5.5608,5.5605,5.5607,5.5606,5.5605,5.5602,5.5604,5.5604,5.56,5.5595,5.5593,5.5592,5.559,5.5591,5.5596,5.5593,5.5571,5.5568,5.5565,5.5564,5.5596,5.5596,5.5616,5.5616,5.5616]}]]